Location: ?????
(31.8092°N, 35.2590°E)
Time: 19:27:43
(UTC+00:00)

Cosmos 1455 Rocket - Pass Details

Date: 24 October 2021
Orbit: 604 x 630 km, 82.5° (Epoch: 04 December)

Event Time Altitude Azimuth Distance (km) Brightness Sun altitude
Rises 02:58:54 0° 347° (NNW) 2,917 6.3 -11.3°
Reaches altitude 10° 03:01:11 10° 342° (NNW) 2,004 5.4 -10.8°
Maximum altitude 03:05:29 51° 267° (W) 786 3.2 -9.9°
Drops below altitude 10° 03:09:44 10° 192° (SSW) 1,977 5.6 -9.0°
Sets 03:11:59 0° 187° (S) 2,874 6.5 -8.5°
